Location: Unspecified
(0.0000°N, 0.0000°E)
Time: 05:13:49
(UTC+00:00)

deb NOAA 5 - Pass Details

Date: 18 February 2026
Orbit: 749 x 1047 km, 102.9° (Epoch: 11 March)

Event Time Altitude Azimuth Distance (km) Brightness Sun altitude
Rises 04:56:36 0° 127° (SE) 3,418 ? -18.9°
Reaches altitude 10° 05:00:02 10° 103° (ESE) 2,542 ? -18.1°
Maximum altitude 05:03:03 15° 71° (ENE) 2,266 ? -17.3°
Drops below altitude 10° 05:06:10 10° 38° (NE) 2,648 ? -16.6°
Sets 05:09:50 0° 16° (NNE) 3,653 ? -15.7°
